^^
Anthem North Phoenix Station Historical Data
 
Daily Summary for October 19, 2019 Units:  English    Metric   Both
Daily Weekly Monthly Yearly Custom
  Current: High: Low: Average:
Temperature: 61.4 °F 82.5 °F 59 °F 69.2 °F
Dew Point: 24.2 °F 36.1 °F 11.4 °F 25.8 °F
Humidity: 24% 32% 7% 21%
Wind Speed: 0mph 6mph 0mph 1.6mph
Wind Gust: 0mph 12mph - -
WindCalm - - SE
Pressure: 29.87 in 29.98 in 29.85 in -
Precipitation: 0 in      
Historical Graphs
 
 
Tabular Data for October 19, 2019
Time Temperature Dew Point Pressure Wind Wind Speed Wind Gust Humidity Rainfall Rate (Hourly)
00:00 64.9 °F 31.9 °F 29.89 in NNE 2 mph 6 mph 29% 0 in
00:05 64.8 °F 31.8 °F 29.89 in NNE 2 mph 3.5 mph 29% 0 in
00:10 64.9 °F 31 °F 29.89 in NNE 3 mph 6 mph 28% 0 in
00:15 65 °F 31.9 °F 29.89 in NNW 3 mph 3.5 mph 29% 0 in
00:20 64.2 °F 31.2 °F 29.89 in NNE 3 mph 6 mph 29% 0 in
00:25 63.8 °F 31.7 °F 29.89 in North 2.2 mph 3.5 mph 30% 0 in
00:30 64 °F 31 °F 29.89 in Calm   5 mph 29% 0 in
00:35 64.1 °F 31.2 °F 29.90 in NNW 0.7 mph 1.2 mph 29% 0 in
00:40 64.1 °F 31.2 °F 29.89 in North 1 mph 1 mph 29% 0 in
00:45 63.8 °F 31.7 °F 29.89 in North 0.8 mph 1.2 mph 30% 0 in
00:50 63.5 °F 31.5 °F 29.89 in North 1 mph 2 mph 30% 0 in
00:55 63.2 °F 32 °F 29.89 in North 1.1 mph 2.3 mph 31% 0 in
01:00 62.8 °F 31.7 °F 29.89 in Calm   2 mph 31% 0 in
01:05 62.5 °F 32.2 °F 29.89 in North 0.1 mph 1.2 mph 32% 0 in
01:10 62.3 °F 31.3 °F 29.89 in Calm   2 mph 31% 0 in
01:15 63 °F 31 °F 29.90 in North 1.1 mph 2.3 mph 30% 0 in
01:20 63.1 °F 31.1 °F 29.90 in North 1 mph 3 mph 30% 0 in
01:25 63.1 °F 31.1 °F 29.90 in NNE 0.6 mph 1.2 mph 30% 0 in
01:30 62.9 °F 30.9 °F 29.90 in NNE 1 mph 3 mph 30% 0 in
01:35 62.5 °F 30.6 °F 29.90 in Calm     30% 0 in
01:40 62.4 °F 30.5 °F 29.90 in NNE 1 mph 2 mph 30% 0 in
01:45 62.6 °F 30.7 °F 29.90 in NNE 1.9 mph 2.3 mph 30% 0 in
01:50 62.5 °F 30.6 °F 29.89 in NNE 2 mph 4 mph 30% 0 in
01:55 62.9 °F 30.1 °F 29.89 in North 1.4 mph 2.3 mph 29% 0 in
02:00 62.7 °F 30 °F 29.89 in North 1 mph 8 mph 29% 0 in
02:05 62.9 °F 29.3 °F 29.89 in North 2.3 mph 3.5 mph 28% 0 in
02:10 63.1 °F 29.4 °F 29.89 in NNE 1 mph 4 mph 28% 0 in
02:15 63 °F 29.4 °F 29.89 in Calm   1.2 mph 28% 0 in
02:20 63.1 °F 29.4 °F 29.89 in Calm   2 mph 28% 0 in
02:25 63 °F 29.4 °F 29.89 in Calm   1.2 mph 28% 0 in
02:30 62.9 °F 29.3 °F 29.89 in NNW 1 mph 2 mph 28% 0 in
02:35 62.7 °F 30 °F 29.89 in North 1.1 mph 2.3 mph 29% 0 in
02:40 62.6 °F 29 °F 29.89 in North 2 mph 4 mph 28% 0 in
02:45 63.1 °F 28.5 °F 29.89 in North 2.4 mph 3.5 mph 27% 0 in
02:50 63.5 °F 28.8 °F 29.89 in NNE 1 mph 5 mph 27% 0 in
02:55 63.4 °F 28.8 °F 29.89 in NNE 3.5 mph 3.5 mph 27% 0 in
03:00 63.5 °F 28.9 °F 29.89 in NNE 3 mph 6 mph 27% 0 in
03:05 63.5 °F 28.9 °F 29.90 in North 2.7 mph 3.5 mph 27% 0 in
03:10 63.3 °F 28.7 °F 29.89 in North 3 mph 6 mph 27% 0 in
03:15 63.2 °F 28.6 °F 29.89 in NNE 3.7 mph 4.6 mph 27% 0 in
03:20 63.1 °F 28.5 °F 29.89 in North 2 mph 6 mph 27% 0 in
03:25 62.8 °F 28.3 °F 29.89 in North 1.6 mph 3.5 mph 27% 0 in
03:30 62.8 °F 28.3 °F 29.89 in NNE 5 mph 5 mph 27% 0 in
03:35 62.2 °F 27.8 °F 29.90 in NE 5.4 mph 6.9 mph 27% 0 in
03:40 62 °F 27.6 °F 29.90 in North 3 mph 8 mph 27% 0 in
03:45 61.7 °F 28.2 °F 29.90 in North 1.4 mph 2.3 mph 28% 0 in
03:50 61.8 °F 27.5 °F 29.90 in North 3 mph 6 mph 27% 0 in
03:55 62 °F 27.6 °F 29.90 in North 5.1 mph 5.8 mph 27% 0 in
04:00 62.2 °F 27.8 °F 29.90 in NNE 3 mph 7 mph 27% 0 in
04:05 62 °F 27.6 °F 29.91 in NNE 1.6 mph 3.5 mph 27% 0 in
04:10 62 °F 27.6 °F 29.91 in NNE 2 mph 4 mph 27% 0 in
04:15 61.7 °F 27.3 °F 29.91 in NE 2.1 mph 3.5 mph 27% 0 in
04:20 61.8 °F 27.4 °F 29.91 in NNE 2 mph 4 mph 27% 0 in
04:25 61.4 °F 27.1 °F 29.91 in North 1.5 mph 2.3 mph 27% 0 in
04:30 61 °F 27.6 °F 29.91 in NNE 1 mph 3 mph 28% 0 in
04:35 60.6 °F 27.3 °F 29.91 in NNE 2.8 mph 3.5 mph 28% 0 in
04:40 60.4 °F 28 °F 29.91 in NNE 3 mph 4 mph 29% 0 in
04:45 60.3 °F 27.9 °F 29.91 in NNE 2.7 mph 3.5 mph 29% 0 in
04:50 60.3 °F 27.9 °F 29.92 in NNE 2 mph 4 mph 29% 0 in
04:55 60.3 °F 27.9 °F 29.92 in NNE 0.6 mph 2.3 mph 29% 0 in
05:00 60.2 °F 27.8 °F 29.92 in NNE 2 mph 4 mph 29% 0 in
05:05 60.4 °F 28 °F 29.92 in NNE 1.6 mph 3.5 mph 29% 0 in
05:10 60.1 °F 27.7 °F 29.92 in NNE 2 mph 4 mph 29% 0 in
05:15 59.8 °F 28.3 °F 29.92 in NNE 2.4 mph 3.5 mph 30% 0 in
05:20 59.8 °F 28.3 °F 29.93 in NNE 1 mph 4 mph 30% 0 in
05:25 59.5 °F 28.8 °F 29.93 in North 3 mph 3.5 mph 31% 0 in
05:30 59.3 °F 28.6 °F 29.93 in NNE 2 mph 4 mph 31% 0 in
05:35 59.3 °F 28.6 °F 29.93 in NNE 2.6 mph 3.5 mph 31% 0 in
05:40 59 °F 28.4 °F 29.93 in NNE 1 mph 4 mph 31% 0 in
05:45 59 °F 29.2 °F 29.93 in NE 2.2 mph 3.5 mph 32% 0 in
05:50 59.2 °F 29.3 °F 29.93 in Calm   3 mph 32% 0 in
05:55 59.6 °F 28.9 °F 29.93 in North 1 mph 1.2 mph 31% 0 in
06:00 59.6 °F 28.9 °F 29.93 in North 1 mph 3 mph 31% 0 in
06:05 59.3 °F 29.4 °F 29.93 in North 0.9 mph 1.2 mph 32% 0 in
06:10 59.4 °F 28.7 °F 29.94 in NNE 1 mph 4 mph 31% 0 in
06:15 59.4 °F 27.9 °F 29.94 in NNE 3.2 mph 4.6 mph 30% 0 in
06:20 59.3 °F 27.9 °F 29.94 in North 2 mph 5 mph 30% 0 in
06:25 59.2 °F 27.7 °F 29.94 in NNE 2.4 mph 3.5 mph 30% 0 in
06:30 59.2 °F 27.7 °F 29.94 in NNE 2 mph 4 mph 30% 0 in
06:35 59.4 °F 27.9 °F 29.94 in NNE 3.9 mph 4.6 mph 30% 0 in
06:40 59.4 °F 27.9 °F 29.94 in NNE 3 mph 7 mph 30% 0 in
06:45 59.3 °F 27.8 °F 29.94 in North 3.1 mph 3.5 mph 30% 0 in
06:50 59.4 °F 27.9 °F 29.94 in North 2 mph 7 mph 30% 0 in
06:55 59.8 °F 27.4 °F 29.95 in NNE 3.2 mph 5.8 mph 29% 0 in
07:00 59.9 °F 27.6 °F 29.95 in North 3 mph 8 mph 29% 0 in
07:05 59.8 °F 27.4 °F 29.95 in NNW 3.8 mph 4.6 mph 29% 0 in
07:10 59.7 °F 28.2 °F 29.96 in NNE 3 mph 7 mph 30% 0 in
07:15 59.7 °F 28.2 °F 29.95 in North 1.7 mph 3.5 mph 30% 0 in
07:20 60 °F 28.4 °F 29.96 in North 6 mph 7 mph 30% 0 in
07:25 60.5 °F 28.1 °F 29.96 in NNW 2.9 mph 4.6 mph 29% 0 in
07:30 60.8 °F 29.1 °F 29.96 in NNE 3 mph 6 mph 30% 0 in
07:35 61.1 °F 28.6 °F 29.96 in North 3.3 mph 4.6 mph 29% 0 in
07:40 61.1 °F 29.4 °F 29.96 in North 3 mph 6 mph 30% 0 in
07:45 61.3 °F 28.7 °F 29.96 in NNE 3.4 mph 3.5 mph 29% 0 in
07:50 61.4 °F 28.9 °F 29.96 in North 2 mph 6 mph 29% 0 in
07:55 61.7 °F 29.1 °F 29.96 in NE 3.4 mph 4.6 mph 29% 0 in
08:00 62 °F 29.3 °F 29.96 in North 3 mph 6 mph 29% 0 in
08:05 62.4 °F 29.7 °F 29.97 in North 3.8 mph 4.6 mph 29% 0 in
08:10 63 °F 30.2 °F 29.97 in North 3 mph 7 mph 29% 0 in
08:15 63.6 °F 29.9 °F 29.97 in North 4.7 mph 6.9 mph 28% 0 in
08:20 64 °F 29.3 °F 29.97 in North 5 mph 8 mph 27% 0 in
08:25 64.5 °F 30.6 °F 29.98 in North 2.5 mph 3.5 mph 28% 0 in
08:30 65 °F 30.1 °F 29.97 in North 3 mph 7 mph 27% 0 in
08:35 65.4 °F 30.5 °F 29.97 in North 4.5 mph 6.9 mph 27% 0 in
08:40 65.9 °F 30.9 °F 29.98 in NNE 5 mph 7 mph 27% 0 in
08:45 66.4 °F 30.4 °F 29.98 in NNE 3.4 mph 6 mph 26% 0 in
08:50 66.9 °F 30.8 °F 29.98 in NNE 3 mph 6 mph 26% 0 in
08:55 67.2 °F 31.1 °F 29.98 in NNE 4.7 mph 5.8 mph 26% 0 in
09:00 67.6 °F 31.5 °F 29.98 in NNE 3 mph 7 mph 26% 0 in
09:05 68 °F 31.8 °F 29.98 in NNW 4 mph 4.6 mph 26% 0 in
09:10 68.4 °F 31.2 °F 29.98 in North 3 mph 6 mph 25% 0 in
09:15 68.9 °F 31.6 °F 29.98 in NNE 2 mph 3.5 mph 25% 0 in
09:20 69.6 °F 32.2 °F 29.98 in NNE 2 mph 6 mph 25% 0 in
09:25 70.2 °F 32.7 °F 29.97 in North 2.4 mph 3.5 mph 25% 0 in
09:30 70.5 °F 31.9 °F 29.98 in NNE 2 mph 4 mph 24% 0 in
09:35 71 °F 34.4 °F 29.98 in Calm     26% 0 in
09:40 72 °F 34.2 °F 29.97 in Calm   3 mph 25% 0 in
09:45 73.1 °F 33.1 °F 29.97 in North 0.1 mph 1.2 mph 23% 0 in
09:50 74.1 °F 35 °F 29.97 in SSE 1 mph 2 mph 24% 0 in
09:55 74.7 °F 35.5 °F 29.97 in SW 0.9 mph 1.2 mph 24% 0 in
10:00 74.5 °F 34.3 °F 29.97 in South 1 mph 3 mph 23% 0 in
10:05 74.9 °F 33.5 °F 29.98 in SSW 1 mph 1.2 mph 22% 0 in
10:10 75.3 °F 34.9 °F 29.98 in South 1 mph 4 mph 23% 0 in
10:15 75.4 °F 35 °F 29.97 in SW 1.6 mph 3.5 mph 23% 0 in
10:20 75.4 °F 36.1 °F 29.98 in Calm   3 mph 24% 0 in
10:25 75.7 °F 34.1 °F 29.97 in NNE 0.6 mph 1.2 mph 22% 0 in
10:30 75.9 °F 35.4 °F 29.98 in WNW 1 mph 4 mph 23% 0 in
10:35 76 °F 33.2 °F 29.98 in SSE 1.2 mph 3.5 mph 21% 0 in
10:40 76.1 °F 34.5 °F 29.97 in Calm   3 mph 22% 0 in
10:45 76.5 °F 34.8 °F 29.98 in SSW 0.6 mph 1.2 mph 22% 0 in
10:50 76.9 °F 31.5 °F 29.97 in SSW 2 mph 4 mph 19% 0 in
10:55 77.2 °F 35.4 °F 29.97 in SSW 1.8 mph 3.5 mph 22% 0 in
11:00 77.9 °F 32.3 °F 29.97 in Calm   4 mph 19% 0 in
11:05 77.9 °F 32.3 °F 29.97 in South 1.4 mph 3.5 mph 19% 0 in
11:10 77.5 °F 29.2 °F 29.96 in SW 2 mph 6 mph 17% 0 in
11:15 77.4 °F 30.5 °F 29.97 in SSW 1.1 mph 3.5 mph 18% 0 in
11:20 77.5 °F 30.7 °F 29.97 in South 2 mph 4 mph 18% 0 in
11:25 77.9 °F 31 °F 29.96 in South 1.9 mph 3.5 mph 18% 0 in
11:30 78.5 °F 31.4 °F 29.96 in South 2 mph 5 mph 18% 0 in
11:35 78.3 °F 29.9 °F 29.96 in SW 2.5 mph 3.5 mph 17% 0 in
11:40 78.6 °F 30.1 °F 29.96 in SSW 2 mph 5 mph 17% 0 in
11:45 79.1 °F 25.8 °F 29.96 in SSE 1 mph 3.5 mph 14% 0 in
11:50 79.1 °F 24 °F 29.96 in SSW 3 mph 7 mph 13% 0 in
11:55 79.2 °F 22.2 °F 29.96 in SSW 3.5 mph 5.8 mph 12% 0 in
12:00 78.6 °F 25.4 °F 29.96 in South 1 mph 7 mph 14% 0 in
12:05 78.8 °F 28.8 °F 29.95 in SW 1.4 mph 3.5 mph 16% 0 in
12:10 79.3 °F 27.6 °F 29.95 in South 1 mph 5 mph 15% 0 in
12:15 79 °F 20 °F 29.95 in SSW 5.3 mph 6.9 mph 11% 0 in
12:20 79 °F 25.7 °F 29.95 in SW 3 mph 7 mph 14% 0 in
12:25 78.7 °F 27.1 °F 29.95 in SSW 0.4 mph 1.2 mph 15% 0 in
12:30 79.4 °F 26 °F 29.95 in South 2 mph 6 mph 14% 0 in
12:35 79.7 °F 24.5 °F 29.94 in SW 3.9 mph 5.8 mph 13% 0 in
12:40 79.3 °F 22.3 °F 29.94 in SSW 2 mph 6 mph 12% 0 in
12:45 79.6 °F 24.4 °F 29.94 in ESE 1.6 mph 3.5 mph 13% 0 in
12:50 80.1 °F 20.8 °F 29.94 in South 2 mph 5 mph 11% 0 in
12:55 79.8 °F 22.6 °F 29.93 in SW 1.3 mph 3.5 mph 12% 0 in
13:00 79.9 °F 22.7 °F 29.93 in SSW 3 mph 8 mph 12% 0 in
13:05 80.3 °F 21 °F 29.93 in South 3.5 mph 4.6 mph 11% 0 in
13:10 80.1 °F 24.8 °F 29.93 in SSW 2 mph 8 mph 13% 0 in
13:15 79.9 °F 20.7 °F 29.92 in SSW 1.1 mph 2.3 mph 11% 0 in
13:20 80.4 °F 18.8 °F 29.92 in SSW 2 mph 6 mph 10% 0 in
13:25 81 °F 16.8 °F 29.92 in SSW 1.8 mph 3.5 mph 9% 0 in
13:30 81.4 °F 11.4 °F 29.92 in South 3 mph 6 mph 7% 0 in
13:35 80.5 °F 18.9 °F 29.91 in SW 3.1 mph 5.8 mph 10% 0 in
13:40 80.4 °F 18.8 °F 29.91 in SW 2 mph 7 mph 10% 0 in
13:45 80.8 °F 21.3 °F 29.91 in SW 1.9 mph 3.5 mph 11% 0 in
13:50 80.8 °F 16.6 °F 29.90 in South 1 mph 5 mph 9% 0 in
13:55 81.3 °F 17 °F 29.90 in SE 2.8 mph 3.5 mph 9% 0 in
14:00 81.6 °F 14.5 °F 29.90 in SSE 5 mph 7 mph 8% 0 in
14:05 82.1 °F 14.9 °F 29.90 in SE 2.9 mph 3.5 mph 8% 0 in
14:10 82.2 °F 15 °F 29.90 in SE 2 mph 8 mph 8% 0 in
14:15 82.4 °F 17.9 °F 29.90 in South 3.9 mph 5.8 mph 9% 0 in
14:20 82.3 °F 20.3 °F 29.89 in SE 2.3 mph 3.5 mph 10% 0 in
14:25 82.3 °F 22.5 °F 29.89 in SSW 3.3 mph 6.9 mph 11% 0 in
14:30 81.8 °F 19.9 °F 29.89 in SSE 3 mph 8 mph 10% 0 in
14:35 81.8 °F 19.9 °F 29.89 in SSW 2.2 mph 3.5 mph 10% 0 in
14:40 81.6 °F 19.7 °F 29.88 in SSW 3 mph 5 mph 10% 0 in
14:45 82.3 °F 20.3 °F 29.88 in ESE 2.5 mph 3.5 mph 10% 0 in
14:50 82.5 °F 20.4 °F 29.89 in South 3 mph 5 mph 10% 0 in
14:55 81.8 °F 19.9 °F 29.88 in ESE 2.2 mph 3.5 mph 10% 0 in
15:00 82 °F 20 °F 29.87 in SSW 3 mph 6 mph 10% 0 in
15:05 82.4 °F 17.9 °F 29.86 in SW 5.3 mph 8.1 mph 9% 0 in
15:10 82.1 °F 14.9 °F 29.86 in SSE 3 mph 8 mph 8% 0 in
15:15 82.2 °F 20.2 °F 29.86 in West 2.8 mph 3.5 mph 10% 0 in
15:20 82 °F 17.6 °F 29.86 in South 5 mph 9 mph 9% 0 in
15:25 82.3 °F 15.1 °F 29.86 in SSW 3.7 mph 5.8 mph 8% 0 in
15:30 81.9 °F 17.5 °F 29.86 in SSW 2 mph 8 mph 9% 0 in
15:35 81.8 °F 17.4 °F 29.87 in SW 3.1 mph 4.6 mph 9% 0 in
15:40 82.1 °F 17.6 °F 29.87 in SSW 1 mph 8 mph 9% 0 in
15:45 81.9 °F 17.5 °F 29.87 in SSW 3.3 mph 3.5 mph 9% 0 in
15:50 82 °F 17.5 °F 29.87 in SW 1 mph 8 mph 9% 0 in
15:55 81.6 °F 17.3 °F 29.87 in South 1.1 mph 2.3 mph 9% 0 in
16:00 81.1 °F 19.3 °F 29.87 in SSW 3 mph 12 mph 10% 0 in
16:05 80.7 °F 19 °F 29.87 in SSE 1.9 mph 4.6 mph 10% 0 in
16:10 80.4 °F 23.1 °F 29.87 in SSW 3 mph 6 mph 12% 0 in
16:15 80.1 °F 20.8 °F 29.86 in West 0.1 mph 2.3 mph 11% 0 in
16:20 79.9 °F 18.5 °F 29.86 in WSW 2 mph 5 mph 10% 0 in
16:25 79.9 °F 16 °F 29.86 in SW 2.5 mph 5.8 mph 9% 0 in
16:30 79.4 °F 15.6 °F 29.86 in SSW 1 mph 6 mph 9% 0 in
16:35 79.4 °F 18 °F 29.86 in SSW 0.8 mph 4 mph 10% 0 in
16:40 79.3 °F 18 °F 29.86 in SSW 2 mph 5 mph 10% 0 in
16:45 79.1 °F 20 °F 29.85 in SSE 1.3 mph 2.3 mph 11% 0 in
16:50 79.1 °F 17.8 °F 29.85 in SSW 2 mph 6 mph 10% 0 in
16:55 78.8 °F 19.8 °F 29.85 in SW 5.3 mph 8.1 mph 11% 0 in
17:00 78.6 °F 19.7 °F 29.85 in SW 1 mph 8 mph 11% 0 in
17:05 78.5 °F 19.6 °F 29.86 in SW 2.9 mph 5.8 mph 11% 0 in
17:10 78.2 °F 19.3 °F 29.86 in SW 1 mph 6 mph 11% 0 in
17:15 77.7 °F 21 °F 29.87 in West 0.3 mph 2.3 mph 12% 0 in
17:20 77.6 °F 18.9 °F 29.87 in Calm   3 mph 11% 0 in
17:25 77.3 °F 18.7 °F 29.87 in SW 1 mph 2.3 mph 11% 0 in
17:30 76.9 °F 16.2 °F 29.88 in Calm   4 mph 10% 0 in
17:35 76.5 °F 18 °F 29.88 in Calm     11% 0 in
17:40 76.2 °F 17.8 °F 29.88 in Calm   1 mph 11% 0 in
17:45 75.7 °F 19.4 °F 29.88 in Calm     12% 0 in
17:50 75 °F 18.9 °F 29.88 in Calm     12% 0 in
17:55 74.6 °F 18.6 °F 29.88 in Calm     12% 0 in
18:00 74.3 °F 18.4 °F 29.88 in Calm   1 mph 12% 0 in
18:05 73.9 °F 18 °F 29.87 in Calm     12% 0 in
18:10 73.7 °F 19.7 °F 29.87 in Calm   1 mph 13% 0 in
18:15 73.2 °F 19.4 °F 29.87 in Calm     13% 0 in
18:20 72.9 °F 19.1 °F 29.87 in Calm   1 mph 13% 0 in
18:25 72.6 °F 18.9 °F 29.87 in Calm     13% 0 in
18:30 72.2 °F 22 °F 29.87 in Calm   1 mph 15% 0 in
18:35 71.3 °F 19.6 °F 29.86 in Calm     14% 0 in
18:40 71 °F 19.4 °F 29.85 in Calm   1 mph 14% 0 in
18:45 70.5 °F 19 °F 29.86 in Calm     14% 0 in
18:50 70.2 °F 18.7 °F 29.86 in Calm     14% 0 in
18:55 70.1 °F 18.6 °F 29.86 in SE 1.5 mph 2.3 mph 14% 0 in
19:00 70.5 °F 20.6 °F 29.86 in Calm   2 mph 15% 0 in
19:05 70.1 °F 20.3 °F 29.86 in Calm     15% 0 in
19:10 70.2 °F 21.8 °F 29.86 in SE 1 mph 1 mph 16% 0 in
19:15 70.1 °F 21.8 °F 29.86 in Calm     16% 0 in
19:20 69.6 °F 22.8 °F 29.87 in Calm     17% 0 in
19:25 68.7 °F 23.4 °F 29.87 in Calm     18% 0 in
19:30 68.6 °F 22 °F 29.87 in Calm   1 mph 17% 0 in
19:35 68.2 °F 23 °F 29.87 in Calm     18% 0 in
19:40 68.2 °F 23 °F 29.87 in Calm   1 mph 18% 0 in
19:45 67.8 °F 22.7 °F 29.87 in SE 0.1 mph 1.2 mph 18% 0 in
19:50 67.8 °F 24 °F 29.87 in Calm   1 mph 19% 0 in
19:55 67.9 °F 22.8 °F 29.87 in Calm     18% 0 in
20:00 67.6 °F 23.9 °F 29.87 in Calm   1 mph 19% 0 in
20:05 67.8 °F 24 °F 29.87 in Calm     19% 0 in
20:10 67.7 °F 25.2 °F 29.87 in Calm   1 mph 20% 0 in
20:15 67.7 °F 25.1 °F 29.87 in Calm     20% 0 in
20:20 67 °F 25.8 °F 29.87 in Calm   1 mph 21% 0 in
20:25 66.2 °F 25.1 °F 29.87 in Calm   1.2 mph 21% 0 in
20:30 66 °F 24.9 °F 29.87 in Calm   1 mph 21% 0 in
20:35 66.4 °F 25.2 °F 29.87 in Calm     21% 0 in
20:40 66.4 °F 26.4 °F 29.87 in Calm   1 mph 22% 0 in
20:45 65.7 °F 25.8 °F 29.87 in Calm     22% 0 in
20:50 65.4 °F 25.6 °F 29.86 in Calm   1 mph 22% 0 in
20:55 65.6 °F 24.6 °F 29.87 in Calm     21% 0 in
21:00 65.7 °F 24.7 °F 29.87 in Calm   1 mph 21% 0 in
21:05 65.4 °F 24.4 °F 29.87 in Calm     21% 0 in
21:10 64.8 °F 26.1 °F 29.87 in Calm     23% 0 in
21:15 63.9 °F 25.3 °F 29.88 in Calm     23% 0 in
21:20 63.5 °F 26 °F 29.88 in Calm   1 mph 24% 0 in
21:25 63.5 °F 25 °F 29.88 in East 1 mph 1.2 mph 23% 0 in
21:30 64 °F 24.4 °F 29.88 in Calm   1 mph 22% 0 in
21:35 64.3 °F 24.6 °F 29.88 in Calm     22% 0 in
21:40 64.2 °F 24.5 °F 29.88 in Calm   1 mph 22% 0 in
21:45 64.3 °F 23.5 °F 29.88 in Calm     21% 0 in
21:50 64.3 °F 24.6 °F 29.88 in Calm   1 mph 22% 0 in
21:55 64.2 °F 23.4 °F 29.88 in Calm     21% 0 in
22:00 64.4 °F 23.5 °F 29.87 in Calm   1 mph 21% 0 in
22:05 64.3 °F 24.6 °F 29.88 in Calm     22% 0 in
22:10 63.8 °F 25.2 °F 29.88 in Calm   1 mph 23% 0 in
22:15 63 °F 25.6 °F 29.88 in Calm     24% 0 in
22:20 62.2 °F 25.9 °F 29.88 in Calm     25% 0 in
22:25 62.1 °F 25.8 °F 29.87 in SE 0.9 mph 1.2 mph 25% 0 in
22:30 61.9 °F 26.6 °F 29.87 in Calm   1.2 mph 26% 0 in
22:35 61.7 °F 27.3 °F 29.88 in Calm     27% 0 in
22:40 61.5 °F 27.2 °F 29.87 in Calm     27% 0 in
22:45 61.2 °F 26 °F 29.87 in Calm     26% 0 in
22:50 61.2 °F 26.9 °F 29.87 in Calm   1 mph 27% 0 in
22:55 61.4 °F 26.2 °F 29.87 in Calm     26% 0 in
23:00 61.7 °F 23.5 °F 29.88 in Calm   1 mph 23% 0 in
23:05 62 °F 23.7 °F 29.88 in Calm     23% 0 in
23:10 62.2 °F 23.9 °F 29.88 in Calm     23% 0 in
23:15 62.4 °F 23 °F 29.86 in SE 0.1 mph 1.2 mph 22% 0 in
23:20 63.2 °F 22.6 °F 29.86 in Calm   1 mph 21% 0 in
23:25 63.7 °F 23 °F 29.87 in Calm     21% 0 in
23:30 63.5 °F 22.8 °F 29.87 in Calm   1 mph 21% 0 in
23:35 63.3 °F 24.8 °F 29.87 in Calm     23% 0 in
23:40 62.5 °F 25.2 °F 29.87 in Calm     24% 0 in
23:45 61.4 °F 24.2 °F 29.87 in Calm     24% 0 in
Anthen North Phoenix Weather
Compliments of Weather Underground - 2.5 mb